Location: Gajan
(43.0218°N, 1.1244°E)
Time: 07:14:22
(UTC+00:00)

Okean 3 Rocket - Pass Details

Date: 22 April 2021
Orbit: 615 x 644 km, 82.5° (Epoch: 08 May)

Event Time Altitude Azimuth Distance (km) Brightness Sun altitude
Rises 20:38:23 0° 357° (N) 2,958 7.7 -18.8°
Reaches altitude 10° 20:40:44 10° 4° (N) 2,040 6.7 -19.1°
Maximum altitude 20:45:05 45° 77° (ENE) 869 4.0 -19.7°
Enters shadow 20:45:39 43° 100° (E) 900 4.0 -19.8°
